Location: Saint-Palais-sur-Mer
(45.6429°N, 1.0859°W)
Time: 00:31:16
(UTC+02:00)

CUBEBUG 2 - Visible Passes

Search period start: 25 April 2024 00:00
Search period end: 05 May 2024 00:00
Orbit: 570 x 672 km, 97.8° (Epoch: 24 April)

Date Brightness Start Highest point End Pass type
(mag) Time Alt. Az. Time Alt. Az. Time Alt. Az.
25 Apr ? 04:24:52 10° NNE 04:28:59 84° WNW 04:29:14 77° SW visible
26 Apr ? 03:07:44 10° ENE 03:09:53 14° E 03:09:53 14° E visible
26 Apr ? 04:42:28 10° N 04:46:30 54° WNW 04:47:05 49° WSW visible
27 Apr ? 03:24:28 10° NE 03:27:43 22° E 03:27:43 22° E visible
27 Apr ? 05:00:11 10° N 05:03:57 35° WNW 05:04:54 31° W visible
28 Apr ? 03:41:34 10° NNE 03:45:20 33° E 03:45:30 33° ESE visible
28 Apr ? 05:17:59 10° NNW 05:21:20 24° WNW 05:22:42 20° W visible
29 Apr ? 03:58:49 10° NNE 04:02:53 51° E 04:03:17 49° ESE visible
29 Apr ? 05:36:00 10° NNW 05:38:40 17° WNW 05:40:29 13° W visible
30 Apr ? 04:16:11 10° NNE 04:20:22 80° ESE 04:21:03 61° S visible
30 Apr ? 05:54:28 10° NW 05:55:56 12° WNW 05:57:24 10° W visible
01 May ? 02:59:35 10° ENE 03:01:15 12° E 03:01:36 12° E visible
01 May ? 04:33:39 10° N 04:37:48 67° WNW 04:38:47 49° SW visible
02 May ? 03:15:53 10° NE 03:18:51 18° E 03:19:19 18° E visible
02 May ? 04:51:12 10° N 04:55:10 44° WNW 04:56:30 33° WSW visible
03 May ? 03:32:45 10° NE 03:36:23 27° E 03:37:01 26° ESE visible
03 May ? 05:08:50 10° N 05:12:29 29° WNW 05:14:12 22° WSW visible
04 May ? 03:49:50 10° NNE 03:53:51 41° E 03:54:41 37° SE visible
04 May ? 05:26:36 10° NNW 05:29:44 21° WNW 05:31:52 15° WSW visible
